When you browse on this site, cookies collect data to enhance your experience and personalize the content and advertising you see.
Visit our Privacy Policy to learn more. By continuing to use the site, you agree to this use of cookies and data.
  • In Spain
  • List of Countries
  • For 7 days
  • Water Temperature
  • Satellite Maps
  • Weather Map
  • Weather Widgets
  • user-avatar
    Login

    Hourly Weather Berberati

    Today, 19 June, Wednesday

    Time Temperature Precipitation Wind Pressure Humidity
    00:00 +21°C° 0 mm 0 mps 714 mmHg 95%
    01:00 +21°C° 0 mm 0 mps 714 mmHg 96%
    02:00 +20°C° 0 mm 0 mps 714 mmHg 96%
    03:00 +20°C° 0 mm 0 mps 714 mmHg 96%
    04:00 +20°C° 0 mm 0 mps 713 mmHg 97%
    05:00 +21°C° 0 mm 0 mps 714 mmHg 96%
    06:00 +21°C° 0 mm 0 mps 714 mmHg 95%
    07:00 +21°C° 0 mm 0 mps 715 mmHg 93%
    08:00 +24°C° 0.1 mm 0 mps 715 mmHg 83%
    09:00 +27°C° 0.1 mm 0 mps 716 mmHg 72%
    10:00 +30°C° 0.1 mm 0 mps 716 mmHg 62%
    11:00 +30°C° 0.2 mm 0 mps 715 mmHg 59%
    12:00 +33°C° 0.2 mm 1 mps 714 mmHg 56%
    13:00 +33°C° 0.2 mm 1 mps 714 mmHg 53%
    14:00 +32°C° 0.4 mm 1 mps 713 mmHg 61%
    15:00 +31°C° 0.4 mm 1 mps 713 mmHg 69%
    16:00 +28°C° 0.4 mm 0 mps 712 mmHg 78%
    17:00 +26°C° 0.4 mm 0 mps 712 mmHg 82%
    18:00 +27°C° 0.4 mm 1 mps 713 mmHg 86%
    19:00 +25°C° 0.4 mm 1 mps 713 mmHg 90%
    20:00 +25°C° 0.8 mm 1 mps 714 mmHg 92%
    21:00 +22°C° 0.8 mm 0 mps 714 mmHg 93%
    22:00 +22°C° 0.8 mm 0 mps 714 mmHg 94%
    23:00 +21°C° 0.2 mm 0 mps 714 mmHg 94%

    Tomorrow, 20 June, Thursday

    Time Temperature Precipitation Wind Pressure Humidity
    00:00 +21°C° 0.2 mm 0 mps 714 mmHg 94%
    01:00 +21°C° 0.2 mm 0 mps 714 mmHg 95%
    02:00 +21°C° 0 mm 0 mps 714 mmHg 95%
    03:00 +21°C° 0 mm 0 mps 714 mmHg 96%
    04:00 +20°C° 0 mm 0 mps 713 mmHg 96%
    05:00 +21°C° 0.1 mm 0 mps 714 mmHg 96%
    06:00 +21°C° 0.1 mm 0 mps 714 mmHg 96%
    07:00 +21°C° 0.1 mm 0 mps 715 mmHg 95%
    08:00 +24°C° 0.3 mm 0 mps 715 mmHg 86%
    09:00 +26°C° 0.3 mm 0 mps 715 mmHg 77%
    10:00 +29°C° 0.3 mm 0 mps 715 mmHg 68%
    11:00 +32°C° 0.5 mm 1 mps 715 mmHg 63%
    12:00 +33°C° 0.5 mm 1 mps 714 mmHg 58%
    13:00 +34°C° 0.5 mm 1 mps 714 mmHg 54%
    14:00 +33°C° 1 mm 1 mps 713 mmHg 60%
    15:00 +31°C° 1 mm 1 mps 713 mmHg 67%
    16:00 +30°C° 1 mm 1 mps 712 mmHg 74%
    17:00 +29°C° 1.3 mm 1 mps 713 mmHg 80%
    18:00 +27°C° 1.3 mm 1 mps 713 mmHg 87%
    19:00 +23°C° 1.3 mm 0 mps 713 mmHg 93%
    20:00 +25°C° 1.3 mm 1 mps 714 mmHg 94%
    21:00 +24°C° 1.3 mm 1 mps 714 mmHg 94%
    22:00 +24°C° 1.3 mm 1 mps 715 mmHg 95%
    23:00 +24°C° 0.3 mm 1 mps 714 mmHg 96%

    Day after tomorrow, 21 June, Friday

    Time Temperature Precipitation Wind Pressure Humidity
    00:00 +24°C° 0.3 mm 1 mps 714 mmHg 96%
    01:00 +23°C° 0.3 mm 1 mps 714 mmHg 97%
    02:00 +23°C° 0.3 mm 1 mps 714 mmHg 97%
    03:00 +23°C° 0.3 mm 1 mps 714 mmHg 97%
    04:00 +21°C° 0.3 mm 0 mps 714 mmHg 97%
    05:00 +23°C° 1.2 mm 1 mps 714 mmHg 98%
    06:00 +23°C° 1.2 mm 1 mps 715 mmHg 98%
    07:00 +23°C° 1.2 mm 1 mps 716 mmHg 99%
    08:00 +21°C° 1.1 mm 0 mps 716 mmHg 98%
    09:00 +22°C° 1.1 mm 0 mps 716 mmHg 98%
    10:00 +22°C° 1.1 mm 0 mps 717 mmHg 98%
    11:00 +25°C° 0.4 mm 1 mps 716 mmHg 93%
    12:00 +26°C° 0.4 mm 1 mps 716 mmHg 89%
    13:00 +27°C° 0.4 mm 1 mps 715 mmHg 84%
    14:00 +27°C° 0 mm 1 mps 714 mmHg 81%
    15:00 +27°C° 0 mm 1 mps 714 mmHg 78%
    16:00 +28°C° 0 mm 2 mps 713 mmHg 75%
    17:00 +27°C° 0 mm 1 mps 713 mmHg 81%
    18:00 +25°C° 0 mm 1 mps 714 mmHg 88%
    19:00 +24°C° 0 mm 1 mps 714 mmHg 94%
    20:00 +24°C° 0 mm 1 mps 714 mmHg 94%
    21:00 +24°C° 0 mm 1 mps 715 mmHg 93%
    22:00 +24°C° 0 mm 1 mps 715 mmHg 92%
    23:00 +23°C° 0 mm 1 mps 715 mmHg 94%

    22 June, Saturday

    Time Temperature Precipitation Wind Pressure Humidity
    00:00 +23°C° 0 mm 1 mps 714 mmHg 96%
    01:00 +22°C° 0 mm 1 mps 714 mmHg 98%
    02:00 +22°C° 0 mm 1 mps 714 mmHg 98%
    03:00 +22°C° 0 mm 1 mps 714 mmHg 98%
    04:00 +21°C° 0 mm 1 mps 713 mmHg 99%
    05:00 +22°C° 0 mm 1 mps 714 mmHg 97%
    06:00 +22°C° 0 mm 1 mps 715 mmHg 95%
    07:00 +23°C° 0 mm 1 mps 715 mmHg 93%
    08:00 +24°C° 0 mm 1 mps 715 mmHg 86%
    09:00 +26°C° 0 mm 1 mps 716 mmHg 80%
    10:00 +27°C° 0 mm 2 mps 716 mmHg 73%
    11:00 +30°C° 0.3 mm 2 mps 715 mmHg 68%
    12:00 +30°C° 0.3 mm 2 mps 715 mmHg 67%
    13:00 +31°C° 0.3 mm 2 mps 714 mmHg 67%
    14:00 +29°C° 2.5 mm 2 mps 713 mmHg 76%
    15:00 +27°C° 2.5 mm 1 mps 713 mmHg 85%
    16:00 +25°C° 2.5 mm 1 mps 712 mmHg 94%
    17:00 +25°C° 0.6 mm 1 mps 712 mmHg 95%
    18:00 +24°C° 0.6 mm 1 mps 712 mmHg 96%
    19:00 +23°C° 0.6 mm 1 mps 713 mmHg 97%
    20:00 +23°C° 0 mm 1 mps 713 mmHg 97%
    21:00 +23°C° 0 mm 1 mps 713 mmHg 97%
    22:00 +22°C° 0 mm 1 mps 714 mmHg 97%
    23:00 +22°C° 0.2 mm 1 mps 714 mmHg 97%

    23 June, Sunday

    Time Temperature Precipitation Wind Pressure Humidity
    00:00 +22°C° 0.2 mm 1 mps 713 mmHg 98%
    01:00 +20°C° 0.2 mm 0 mps 713 mmHg 98%
    02:00 +20°C° 0 mm 0 mps 713 mmHg 98%
    03:00 +19°C° 0 mm 0 mps 713 mmHg 98%
    04:00 +19°C° 0 mm 0 mps 713 mmHg 98%
    05:00 +22°C° 0 mm 1 mps 714 mmHg 98%
    06:00 +22°C° 0 mm 1 mps 714 mmHg 98%
    07:00 +23°C° 0 mm 1 mps 714 mmHg 98%
    08:00 +24°C° 0 mm 1 mps 715 mmHg 94%
    09:00 +25°C° 0 mm 1 mps 715 mmHg 90%
    10:00 +25°C° 0 mm 1 mps 716 mmHg 86%
    11:00 +26°C° 0.1 mm 1 mps 715 mmHg 84%
    12:00 +26°C° 0.1 mm 1 mps 714 mmHg 81%
    13:00 +27°C° 0.1 mm 2 mps 714 mmHg 79%
    14:00 +27°C° 0 mm 1 mps 713 mmHg 79%
    15:00 +27°C° 0 mm 1 mps 712 mmHg 78%
    16:00 +27°C° 0 mm 1 mps 712 mmHg 78%
    17:00 +26°C° 0 mm 1 mps 712 mmHg 83%
    18:00 +25°C° 0 mm 1 mps 712 mmHg 89%
    19:00 +22°C° 0 mm 0 mps 713 mmHg 95%
    20:00 +21°C° 0 mm 0 mps 713 mmHg 96%
    21:00 +21°C° 0 mm 0 mps 713 mmHg 96%
    22:00 +21°C° 0 mm 0 mps 713 mmHg 96%
    23:00 +21°C° 0 mm 0 mps 713 mmHg 97%

    24 June, Monday

    Time Temperature Precipitation Wind Pressure Humidity
    00:00 +21°C° 0 mm 0 mps 713 mmHg 97%
    01:00 +20°C° 0 mm 0 mps 713 mmHg 98%
    02:00 +20°C° 0 mm 0 mps 713 mmHg 98%
    03:00 +20°C° 0 mm 0 mps 713 mmHg 98%
    04:00 +22°C° 0 mm 1 mps 713 mmHg 98%
    05:00 +22°C° 0 mm 1 mps 713 mmHg 97%
    06:00 +23°C° 0 mm 1 mps 714 mmHg 95%
    07:00 +23°C° 0 mm 1 mps 714 mmHg 94%
    08:00 +25°C° 0 mm 1 mps 714 mmHg 87%
    09:00 +26°C° 0 mm 2 mps 715 mmHg 81%
    10:00 +27°C° 0 mm 2 mps 715 mmHg 74%
    11:00 +28°C° 0.4 mm 2 mps 714 mmHg 73%
    12:00 +28°C° 0.4 mm 2 mps 714 mmHg 71%
    13:00 +29°C° 0.4 mm 2 mps 713 mmHg 70%
    14:00 +29°C° 0.5 mm 2 mps 713 mmHg 74%
    15:00 +28°C° 0.5 mm 2 mps 712 mmHg 77%
    16:00 +28°C° 0.5 mm 1 mps 712 mmHg 81%
    17:00 +27°C° 1.7 mm 1 mps 712 mmHg 86%
    18:00 +25°C° 1.7 mm 1 mps 712 mmHg 90%
    19:00 +24°C° 1.7 mm 1 mps 713 mmHg 95%
    20:00 +24°C° 0.7 mm 1 mps 713 mmHg 95%
    21:00 +23°C° 0.7 mm 1 mps 713 mmHg 96%
    22:00 +23°C° 0.7 mm 1 mps 714 mmHg 97%
    23:00 +23°C° 0 mm 1 mps 713 mmHg 96%
    Show more